Wetbulb
39.51 39.78 40.10 40.25 40.48 41.05 41.58 41.70 41.21 41.41 41.91 42.28 42.09 42.03 41.97 41.82 41.76 42.00 42.34 42.48 42.88 43.17 43.41 43.68 44.33 44.29 44.21 44.35 44.07 43.02 41.68 40.45 39.73 39.24 39.16 39.43 40.28 40.60 40.69 40.87 41.05 41.00 40.82 40.55 40.69 41.01 41.47 42.01 42.72 42.74 42.67 42.72 40.18 38.82 38.24 38.71 38.96 39.49 39.68 39.29 38.67 38.19 37.80 37.65 37.22 36.95 36.92 36.62 36.62
38.93 39.24 39.55 39.54 39.81 40.58 41.24 41.28 41.25 41.27 41.52 42.03 41.83 41.44 41.19 41.29 41.31 41.28 41.41 41.41 42.32 42.73 42.96 43.30 43.88 43.93 43.84 43.87 43.81 43.12 42.01 40.13 39.33 39.06 39.07 39.21 39.61 39.79 40.10 40.69 40.79 40.53 40.30 39.98 40.05 40.28 40.65 41.31 41.67 41.26 40.84 40.78 38.35 37.05 36.80 37.58 37.99 38.07 37.78 37.16 36.93 36.67 36.49 36.26 36.35 36.39 36.35 36.18 36.11
38.74 39.30 39.82 40.01 40.20 40.53 40.91 40.94 40.68 40.31 40.23 40.73 41.07 41.00 40.97 41.06 41.13 41.15 41.07 41.06 40.67 40.94 41.81 42.70 42.71 43.13 43.54 43.82 43.95 43.07 41.47 39.59 38.97 38.97 39.11 39.20 39.11 39.11 39.39 40.13 39.87 39.55 39.33 39.39 39.41 39.56 39.87 40.09 39.98 39.44 38.82 38.39 37.01 36.11 35.78 36.35 36.62 36.60 36.35 36.06 36.11 35.93 35.68 35.55 35.91 36.18 36.20 36.06 36.00
38.25 38.93 39.45 39.44 39.18 39.34 39.75 40.31 39.74 39.41 39.53 40.32 40.04 40.09 40.35 40.80 41.01 40.95 40.42 39.55 39.41 39.96 40.78 41.23 41.59 42.02 42.72 43.73 43.80 42.70 40.73 38.56 38.34 38.43 38.61 38.61 38.34 38.07 38.16 38.99 38.69 38.62 38.68 38.71 38.58 38.58 38.81 38.97 38.45 37.95 37.60 37.29 36.19 35.26 34.96 35.64 35.22 35.26 35.32 35.30 35.49 35.38 35.19 35.32 35.64 35.85 35.96 35.81 35.95
37.83 38.22 38.78 38.93 38.49 38.70 39.14 39.13 38.85 38.96 39.35 39.84 40.06 40.23 40.39 40.45 40.49 40.15 39.74 39.70 39.78 39.73 39.59 39.22 40.33 41.02 41.90 42.91 42.22 40.80 39.29 38.26 38.43 38.52 38.38 37.84 37.44 37.35 37.17 37.04 36.88 37.08 37.51 38.04 37.82 37.67 37.39 37.07 37.00 36.75 36.44 36.07 35.49 34.96 34.47 34.35 34.26 34.11 34.17 34.52 34.76 34.73 34.79 34.92 35.43 35.62 35.74 35.64 35.74
37.55 37.48 37.64 38.11 37.98 38.32 38.67 38.66 38.39 38.46 38.94 39.32 39.06 38.94 39.21 39.85 39.63 39.16 38.92 39.02 38.51 37.92 37.52 37.47 38.28 39.05 39.92 40.69 39.78 38.87 38.31 38.80 39.16 38.48 37.48 36.72 36.72 36.50 36.16 36.07 35.71 35.62 35.86 36.49 36.68 36.35 35.82 35.44 35.75 35.64 35.40 35.28 34.38 33.88 33.58 33.42 33.45 33.27 33.21 33.43 33.82 34.02 34.24 34.12 34.84 35.20 35.36 35.13 34.96
37.60 37.52 37.55 37.56 37.71 38.00 38.20 38.06 38.14 38.23 38.50 38.65 37.44 36.88 36.87 37.13 36.86 36.23 36.14 36.82 37.51 37.70 37.75 37.80 38.20 38.52 38.89 38.87 38.38 38.10 38.26 38.97 38.52 37.44 36.54 36.27 35.84 35.53 35.17 35.08 34.73 34.51 34.51 34.77 34.63 34.54 34.40 33.99 34.75 34.85 34.58 34.51 34.20 33.41 32.86 33.27 32.93 32.72 32.43 32.35 33.09 33.45 33.44 33.06 33.80 34.21 34.21 33.86 33.60
37.37 37.27 37.18 37.12 37.40 37.46 37.54 37.64 37.80 38.07 38.26 38.34 36.81 35.98 35.62 35.43 35.34 35.43 35.57 36.21 36.62 36.94 37.26 37.98 37.89 37.94 37.99 37.91 37.52 37.60 37.94 38.30 37.71 36.76 35.82 35.52 34.90 34.68 34.46 34.28 34.01 33.76 33.58 33.65 33.55 33.23 33.12 33.54 34.02 33.72 33.46 33.61 33.61 32.90 32.18 31.93 31.62 31.19 31.01 31.03 31.91 32.35 32.53 32.27 32.54 32.73 32.78 32.43 32.28
37.03 36.86 36.78 36.81 36.84 36.85 37.05 37.18 37.01 37.09 36.90 36.40 35.76 35.44 35.26 35.12 34.99 34.99 35.22 35.95 35.73 35.62 35.98 37.10 36.99 36.99 37.13 36.92 36.74 37.10 37.60 38.28 37.13 36.13 35.28 34.49 34.36 34.09 33.91 33.73 33.37 33.19 33.10 33.01 32.83 32.33 32.06 32.83 33.08 32.83 32.65 33.04 32.53 31.84 31.18 30.87 30.17 29.66 29.39 29.59 30.20 30.57 30.80 30.93 30.80 30.95 31.12 31.05 31.05
35.99 36.08 36.30 36.43 36.29 36.26 36.27 36.57 36.46 36.13 35.71 35.37 35.05 34.95 34.81 34.63 34.59 34.68 34.86 35.31 34.85 34.86 35.31 36.02 36.18 36.31 36.45 36.23 36.41 36.45 36.58 36.85 36.30 35.45 34.74 34.40 34.08 33.81 33.48 33.20 32.66 32.35 32.26 32.13 32.22 31.77 31.38 31.83 31.23 30.84 30.84 30.87 30.13 29.94 30.10 30.32 29.37 28.52 28.36 29.01 28.58 28.16 28.06 28.45 28.53 28.77 28.89 29.02 29.31
34.72 34.99 35.30 35.55 35.73 35.68 35.76 36.21 36.27 36.07 35.64 35.23 34.78 34.64 34.59 34.37 34.33 34.37 34.19 34.01 34.00 34.10 34.50 35.16 35.37 35.54 35.67 35.63 35.64 35.55 35.45 35.67 35.26 34.77 34.15 33.72 33.39 33.21 33.03 32.66 32.06 31.61 31.43 31.40 31.43 31.12 30.82 30.69 29.60 29.26 29.27 29.31 29.10 29.26 29.42 29.28 28.49 27.51 26.87 26.94 26.57 26.30 25.96 26.09 26.53 26.92 27.16 27.27 27.61
33.72 33.93 34.14 34.31 34.56 34.93 35.32 35.67 35.90 35.64 35.18 34.82 34.55 34.37 34.28 34.37 34.06 33.74 33.29 33.03 33.19 33.60 34.00 34.49 34.74 34.78 34.77 34.63 34.55 34.33 34.15 34.20 33.79 33.25 32.85 32.64 32.51 32.24 31.97 31.74 31.59 31.36 31.21 31.25 31.02 30.57 30.01 29.27 28.81 28.38 28.01 27.79 28.38 28.58 28.62 28.18 27.50 26.52 25.82 25.47 25.24 24.94 24.82 24.79 25.05 25.54 25.92 26.05 26.36
32.87 32.92 33.05 33.17 33.38 33.94 34.53 34.86 35.31 35.01 34.59 34.14 34.05 33.96 33.87 33.83 33.47 32.96 32.60 32.49 32.55 33.12 33.57 33.75 33.84 33.84 33.74 33.54 33.33 33.29 33.12 32.94 32.22 31.92 31.70 31.45 31.41 31.23 31.01 31.01 31.05 31.03 31.11 31.00 30.53 29.99 29.38 28.79 28.23 27.63 27.11 27.17 27.59 27.65 27.55 27.23 26.35 25.61 24.98 24.51 24.22 23.93 23.90 23.98 24.13 24.42 24.74 24.81 25.08
32.18 32.21 32.24 32.22 32.57 33.16 33.70 34.11 34.78 34.74 34.19 33.47 33.33 33.36 33.24 33.16 32.75 32.42 32.24 32.08 31.99 32.26 32.48 32.48 32.71 32.89 32.98 32.89 32.35 31.95 31.56 31.38 30.85 30.33 30.17 30.23 30.67 30.49 30.32 30.58 30.73 31.03 31.19 31.03 30.51 29.92 29.29 28.46 27.78 27.18 26.84 26.81 26.72 26.69 26.62 26.70 25.70 24.89 24.23 23.76 23.58 23.29 23.23 23.38 23.32 23.61 23.79 23.87 23.70
31.87 31.70 31.66 31.62 31.95 32.53 33.07 33.50 34.31 34.27 33.57 32.94 32.84 32.66 32.57 32.39 32.26 32.12 31.94 31.59 31.41 31.54 31.70 31.43 31.61 31.95 32.28 32.82 31.97 31.12 30.40 29.79 29.36 29.21 29.05 29.14 29.58 29.76 29.76 30.16 30.75 31.16 31.46 31.43 30.55 30.12 29.61 28.80 27.89 27.30 26.82 26.61 26.36 26.12 25.96 25.95 25.29 24.75 24.21 23.77 23.26 22.94 22.76 22.67 22.64 22.82 22.91 22.94 22.73
31.49 31.44 31.31 31.19 31.31 31.66 32.19 32.78 33.59 33.46 32.94 32.49 32.13 31.95 31.77 31.50 31.77 31.77 31.59 31.29 31.05 30.91 30.85 30.55 30.91 31.05 31.25 31.45 31.14 30.42 29.49 28.83 28.67 28.33 28.24 28.33 28.69 28.96 29.40 30.21 31.09 31.32 31.09 30.71 29.96 29.61 29.36 28.89 28.19 27.40 26.85 26.40 25.86 25.34 24.98 25.15 24.88 24.48 23.95 23.62 23.12 22.64 22.26 22.15 21.97 21.89 21.89 21.98 21.80
31.03 31.01 30.89 30.71 30.76 30.90 31.23 31.73 32.22 32.24 31.97 31.39 31.18 31.00 31.03 31.07 31.41 31.34 31.12 30.85 30.42 30.15 29.97 29.94 30.15 30.12 29.95 29.76 29.90 29.54 28.83 28.20 28.31 28.27 28.19 28.10 28.19 28.72 29.56 30.84 31.39 31.30 30.66 29.75 29.22 28.76 28.41 28.07 27.92 27.53 26.95 26.35 25.65 25.11 24.74 24.70 24.34 23.83 23.35 23.03 22.58 22.09 21.80 21.83 21.37 21.17 21.09 21.07 20.95
30.40 30.44 30.35 30.34 30.24 30.37 30.59 30.75 30.89 30.87 30.84 30.62 30.44 30.44 30.48 30.46 30.46 30.51 30.48 30.26 30.01 29.51 29.15 29.24 29.15 29.02 28.86 29.01 29.01 28.83 28.50 27.93 27.93 28.16 28.61 28.70 28.79 29.36 30.26 31.23 31.91 31.55 30.57 29.21 28.62 28.21 27.97 27.93 27.89 27.47 26.72 26.06 25.51 24.96 24.60 24.20 23.54 23.03 22.44 22.14 21.85 21.51 21.20 21.06 20.55 20.26 20.20 20.23 20.39
29.92 29.92 29.98 29.94 29.98 30.02 30.30 30.48 30.37 30.23 30.26 30.17 29.99 29.81 29.56 29.44 29.47 29.47 29.47 29.40 29.47 29.10 28.75 28.52 28.27 28.20 28.16 28.22 28.65 28.83 28.65 28.11 27.75 28.11 28.83 29.45 29.94 30.24 30.73 31.61 32.19 31.75 30.68 29.24 28.50 28.10 27.96 27.94 27.60 27.08 26.39 25.61 25.06 24.51 23.94 23.40 22.47 21.79 21.32 20.99 20.79 20.62 20.34 19.99 19.63 19.36 19.39 19.57 19.86
29.33 29.44 29.64 29.78 29.76 29.87 30.10 30.82 30.58 30.26 29.99 29.88 29.27 28.90 28.74 28.76 28.71 28.50 28.41 28.58 28.69 28.40 28.02 27.48 27.39 27.54 27.83 28.01 28.34 28.47 28.65 28.68 28.32 28.54 29.17 30.12 30.51 30.64 30.73 31.14 31.71 31.23 30.21 29.21 28.55 27.82 27.20 26.61 26.34 25.97 25.55 25.10 24.61 23.86 22.98 22.12 21.20 20.58 20.05 19.85 19.76 19.56 19.39 19.28 19.10 18.95 19.01 19.12 19.47
28.98 29.18 29.35 29.43 29.48 29.62 29.82 30.44 30.21 29.70 29.22 28.86 28.61 28.33 28.23 28.10 27.98 27.91 27.91 27.86 27.81 27.44 27.08 26.86 26.78 27.04 27.35 27.74 28.07 28.47 28.83 29.34 28.90 29.17 29.61 30.30 30.66 30.84 30.78 30.28 30.10 29.76 29.29 28.50 27.38 26.24 25.35 24.70 24.90 24.86 24.71 24.23 23.71 22.93 21.94 20.84 19.90 19.43 19.32 19.39 19.34 19.19 18.89 18.60 18.54 18.57 18.77 18.97 19.26
28.80 28.85 29.06 29.07 29.14 29.12 29.31 29.76 29.38 28.88 28.36 28.11 28.04 27.88 27.69 27.62 27.56 27.52 27.56 27.41 27.00 26.75 26.63 26.69 26.67 26.79 27.07 27.61 27.86 28.38 29.04 29.43 29.22 29.58 30.24 30.57 31.07 31.16 30.89 29.92 28.93 28.23 27.56 26.73 25.32 24.28 23.72 24.00 24.49 24.52 23.98 23.18 22.16 21.59 21.08 20.84 19.69 19.11 19.03 19.23 19.33 19.17 18.66 18.01 17.98 18.07 18.36 18.62 19.09
28.38 28.52 28.69 28.85 28.71 28.69 28.54 28.50 28.12 27.76 27.52 27.45 27.44 27.28 27.16 26.97 26.93 26.81 26.63 26.49 26.24 26.09 26.02 26.15 26.32 26.57 27.11 27.69 27.97 28.38 28.59 28.56 29.01 29.51 30.01 30.24 30.30 30.03 29.53 28.65 27.57 26.61 25.88 25.54 24.43 23.45 23.13 23.59 24.07 23.65 22.69 21.53 20.54 19.95 19.96 20.84 20.46 19.58 18.82 18.66 18.76 18.43 18.05 17.57 17.45 17.56 17.94 18.47 19.29
27.92 27.91 28.24 28.68 28.31 27.92 27.63 27.34 27.07 27.03 27.02 27.13 27.16 27.03 26.73 26.49 26.13 25.83 25.53 25.32 25.17 24.93 24.93 25.32 25.61 26.15 26.83 27.74 28.41 28.51 28.31 27.86 28.31 28.69 29.03 29.44 29.48 28.94 28.30 27.68 26.84 25.88 25.37 25.75 26.21 26.32 26.19 25.73 24.92 23.71 22.24 20.63 19.45 19.09 19.45 20.40 19.55 18.96 18.64 18.50 18.07 17.45 16.98 16.98 16.98 17.48 18.12 18.18 18.97
27.43 27.21 27.40 28.20 27.98 27.41 26.82 26.55 26.52 26.63 26.71 26.89 26.71 26.41 26.11 25.95 25.56 25.18 24.88 24.66 24.60 24.57 24.66 24.66 24.83 25.64 26.68 27.63 28.27 28.37 28.14 27.73 27.64 27.69 27.86 28.27 28.45 28.07 27.42 27.17 26.03 25.73 26.20 27.04 30.11 32.03 32.43 31.21 29.69 27.12 23.86 20.69 19.30 19.27 19.89 20.34 19.69 19.31 19.19 19.05 18.38 17.47 16.85 16.75 16.90 17.45 18.07 18.24 18.45
26.94 26.62 26.71 27.35 27.20 26.75 26.27 26.24 26.21 26.26 26.26 26.08 25.90 25.72 25.77 25.59 25.18 24.61 24.22 24.04 24.21 24.54 24.68 24.59 24.77 25.69 26.52 26.91 27.07 27.37 27.46 27.35 27.17 26.99 26.93 27.23 27.14 26.79 26.59 27.01 26.44 26.34 27.11 29.20 31.46 32.67 33.38 34.00 34.06 31.09 26.06 20.04 18.62 18.89 19.84 20.30 20.27 20.09 19.64 19.07 18.46 17.66 16.93 16.61 16.71 16.98 17.75 18.80 18.45
26.08 26.05 26.14 26.63 26.48 26.33 26.17 25.90 25.70 25.49 25.46 25.39 25.39 25.50 25.50 25.23 24.49 23.93 23.66 23.65 24.03 24.27 24.50 24.77 25.24 25.95 26.45 26.26 26.16 26.27 26.54 26.94 26.88 26.47 26.03 25.63 25.43 25.21 25.27 25.54 24.87 25.48 27.31 30.02 31.74 32.72 33.35 33.74 34.52 33.62 30.05 22.42 19.27 18.96 19.86 20.23 20.25 20.13 19.77 19.29 18.69 17.74 16.83 16.42 16.43 16.76 17.41 18.43 18.28
25.60 25.63 25.69 25.67 25.90 26.08 25.90 25.31 25.01 25.13 25.24 25.23 25.14 25.23 25.26 25.00 24.25 23.87 23.66 23.77 23.89 24.12 24.57 25.07 25.65 25.98 26.17 26.08 25.77 25.67 25.64 25.79 25.83 25.73 25.32 24.70 24.29 23.90 23.45 23.30 23.06 24.58 27.22 30.65 32.06 32.97 33.65 34.04 34.57 34.86 33.09 26.92 20.51 19.31 20.18 19.89 19.65 19.39 19.33 19.34 17.90 16.59 15.86 15.65 15.83 16.33 17.08 17.50 17.63
25.18 25.15 25.13 25.30 25.86 26.02 25.82 25.07 25.15 25.14 25.11 24.97 25.03 25.15 25.15 24.88 24.43 24.13 23.95 23.89 24.06 24.44 24.92 25.48 25.81 25.85 25.81 25.53 25.23 24.96 24.93 24.76 24.80 24.66 24.34 23.78 23.33 22.71 22.17 21.88 21.79 23.85 27.16 30.91 32.36 33.39 34.02 34.47 34.64 35.05 34.79 32.87 22.85 19.53 19.63 19.72 19.69 19.60 19.36 18.94 16.54 15.08 14.62 14.79 15.68 16.51 17.14 17.50 17.10
24.88 24.56 24.56 25.33 25.77 25.81 25.63 25.18 25.23 25.14 25.03 24.89 25.01 24.80 24.47 24.23 24.19 24.13 23.95 23.85 24.17 24.79 25.15 25.19 25.19 24.98 24.79 24.67 24.49 24.49 24.40 24.38 24.06 23.42 22.80 22.09 21.91 21.82 21.76 21.91 21.08 23.05 26.83 31.03 32.78 33.74 34.31 34.32 34.25 34.64 34.63 33.58 23.77 19.61 18.92 19.25 19.26 19.41 19.10 18.04 15.88 14.91 15.06 16.15 16.48 16.78 16.84 16.46 16.47
24.56 24.20 24.20 24.53 25.06 25.33 25.23 24.97 24.82 24.88 24.80 24.63 24.30 24.02 23.96 24.01 23.98 24.06 24.00 24.06 24.38 24.44 24.39 24.24 24.23 24.20 24.11 24.19 24.11 24.11 23.87 23.64 22.97 22.23 21.55 21.08 21.17 21.08 20.91 20.46 19.73 22.03 26.38 31.75 33.13 33.74 33.76 33.74 33.97 34.10 33.25 30.29 22.91 18.62 17.09 17.80 18.65 18.93 18.77 18.17 18.07 17.70 17.19 16.89 17.40 17.64 17.34 16.28 16.08
23.99 23.76 23.67 23.99 24.49 24.88 25.05 24.79 24.53 24.35 24.12 23.88 23.63 23.69 23.87 23.80 23.65 23.59 23.59 23.68 23.68 23.80 23.91 24.17 24.22 24.19 24.10 23.78 23.93 23.78 23.43 22.97 22.32 21.67 21.08 20.40 19.99 19.66 19.55 19.58 19.02 21.50 26.38 32.62 33.02 33.15 33.07 33.15 33.29 32.69 30.92 27.31 22.53 18.81 16.93 17.38 17.98 18.24 18.33 18.51 19.02 19.14 19.25 19.67 19.63 19.31 18.84 18.19 17.36
23.55 23.37 23.37 23.63 24.20 24.61 24.79 24.58 24.32 23.91 23.46 23.40 23.46 23.63 23.63 23.36 23.00 23.06 23.24 23.33 23.48 23.82 24.23 24.55 24.37 24.16 24.13 23.96 24.01 23.69 23.17 22.61 21.85 21.17 20.49 19.57 18.92 18.45 18.36 18.78 18.34 22.26 28.08 32.88 32.59 32.45 32.43 32.43 31.98 30.61 28.55 26.06 21.61 18.74 17.47 17.91 18.05 18.20 18.41 18.88 19.53 19.89 20.04 20.13 19.95 19.78 19.34 18.98 17.76
23.34 23.34 23.34 23.48 23.90 24.20 24.14 23.81 23.34 22.89 22.68 22.83 23.19 23.39 23.24 22.89 22.97 23.35 23.71 23.68 23.77 24.03 24.41 24.58 24.31 24.25 24.07 23.90 23.34 22.79 22.35 21.88 20.91 20.11 19.46 19.04 18.62 18.21 17.80 17.57 17.33 22.97 29.69 32.57 32.28 32.12 31.93 31.51 30.40 28.78 26.94 25.06 21.47 19.58 18.71 18.40 18.32 18.48 18.84 19.25 20.03 20.39 20.51 20.49 20.10 19.42 18.53 17.34 16.49
23.54 23.54 23.81 23.81 23.90 23.78 23.37 22.65 22.24 22.15 22.39 22.83 23.18 23.24 23.03 22.65 23.18 23.74 24.00 23.97 23.88 23.85 23.85 23.94 23.79 23.73 23.52 22.94 22.32 21.62 20.97 20.64 20.38 19.96 19.46 18.89 17.74 17.36 17.32 17.55 17.82 23.29 29.63 32.16 32.04 31.78 31.41 30.55 29.22 27.90 26.04 22.94 20.24 19.07 18.55 17.92 18.22 18.48 18.70 18.99 19.33 19.43 19.34 19.07 18.40 17.47 16.39 15.58 15.22
23.72 23.72 23.87 23.66 23.72 23.45 23.07 22.39 22.03 22.21 22.62 22.92 23.09 23.06 22.79 22.65 23.06 23.50 23.83 23.74 23.35 23.20 23.08 23.17 23.00 22.94 22.79 22.53 21.68 20.53 19.65 19.58 20.17 20.14 19.57 18.27 16.88 16.10 15.88 16.62 17.85 22.61 28.15 31.72 31.68 31.55 31.13 30.12 28.90 27.59 25.29 20.85 18.00 16.64 16.28 16.14 16.73 16.90 17.03 17.30 17.43 17.34 17.08 16.83 16.49 16.02 15.60 15.25 14.85
23.31 23.19 23.33 23.48 23.51 23.36 23.04 22.48 22.21 22.36 22.62 22.91 22.71 22.59 22.68 22.97 23.24 23.30 23.33 23.15 23.06 23.03 22.91 22.97 22.82 22.70 22.56 22.38 21.65 20.53 19.50 19.19 19.52 19.66 19.31 18.24 16.71 15.65 15.37 16.56 17.97 21.29 25.85 30.85 31.08 31.12 30.93 30.35 29.26 27.43 24.10 18.61 15.60 14.19 13.92 13.99 14.38 14.79 15.07 15.50 15.65 15.43 15.08 15.26 15.02 14.85 14.76 14.38 15.24
22.62 22.50 22.83 23.24 23.42 23.27 22.95 22.48 22.18 22.27 22.50 22.71 22.20 22.17 22.26 22.53 23.15 23.42 23.51 23.42 23.38 23.11 22.76 22.55 22.56 22.35 22.00 21.41 20.62 20.17 19.82 19.28 18.89 18.71 18.24 17.53 16.02 15.26 15.45 16.96 18.79 21.26 24.61 29.56 30.26 30.36 30.25 30.10 29.62 28.02 24.31 17.64 14.98 13.66 13.19 13.34 13.50 13.71 14.10 14.43 14.56 14.22 13.94 14.52 13.84 13.84 13.90 13.63 17.36
22.00 21.73 22.06 22.74 23.19 23.27 23.13 22.71 22.47 22.53 22.65 22.53 22.09 21.79 21.76 21.79 22.92 24.10 24.48 23.60 23.03 22.50 22.14 21.91 21.82 21.56 20.97 20.23 19.31 19.19 19.52 19.78 19.18 18.45 17.74 16.85 16.85 17.30 17.84 17.42 19.23 21.32 24.05 28.05 29.03 29.23 29.02 28.93 28.94 28.54 25.93 19.31 15.51 13.83 13.30 13.19 13.23 13.18 13.22 13.20 13.82 13.77 13.57 13.82 13.05 13.36 13.75 13.37 19.43
21.58 21.14 21.50 22.39 23.19 23.55 23.51 23.19 22.95 22.62 22.44 22.26 22.09 22.15 22.38 22.77 23.54 24.84 25.13 22.92 22.26 21.73 21.29 21.05 20.94 20.35 19.61 19.14 18.36 18.15 18.62 19.60 19.60 19.16 18.36 17.44 18.77 21.26 22.00 18.21 19.17 20.62 22.67 26.10 27.50 27.93 27.90 27.84 27.90 27.92 26.35 21.33 16.41 14.10 13.30 13.19 13.05 13.01 13.05 13.49 13.98 14.18 14.27 14.18 13.51 13.71 13.95 13.57 17.61
21.47 21.20 21.56 22.66 23.64 23.84 23.63 23.33 23.06 22.53 22.06 21.91 22.27 22.59 22.83 23.01 22.74 23.27 23.39 22.33 22.17 21.55 20.90 20.22 19.67 18.78 18.02 17.92 17.38 17.32 17.74 18.66 19.69 19.52 18.83 18.89 19.87 21.79 22.32 18.98 18.99 19.38 20.66 23.53 25.98 26.82 27.04 27.15 27.23 27.43 26.63 24.13 17.96 14.87 13.63 13.43 13.32 13.27 13.51 14.30 14.64 15.16 15.45 15.13 14.82 14.68 14.75 14.67 15.50
MSLP
1024.06 1024.10 1024.10 1024.14 1024.22 1024.30 1024.38 1024.46 1024.46 1024.46 1024.46 1024.46 1024.50 1024.50 1024.46 1024.46 1024.46 1024.46 1024.42 1024.38 1024.30 1024.26 1024.18 1024.06 1024.02 1024.02 1023.94 1023.90 1023.86 1023.78 1023.74 1023.62 1023.58 1023.50 1023.42 1023.30 1023.26 1023.18 1023.06 1022.98 1022.86 1022.74 1022.66 1022.54 1022.42 1022.26 1022.10 1021.98 1021.86 1021.74 1021.70 1021.74 1021.86 1021.86 1021.78 1021.74 1021.58 1021.38 1021.22 1021.18 1021.06 1020.98 1020.86 1020.74 1020.58 1020.46 1020.30 1020.18 1020.02
1024.30 1024.30 1024.30 1024.34 1024.38 1024.42 1024.46 1024.58 1024.58 1024.58 1024.58 1024.58 1024.58 1024.58 1024.58 1024.54 1024.54 1024.54 1024.50 1024.46 1024.38 1024.30 1024.22 1024.14 1024.06 1024.02 1023.98 1023.90 1023.86 1023.78 1023.74 1023.62 1023.58 1023.54 1023.46 1023.38 1023.30 1023.22 1023.14 1023.02 1022.94 1022.86 1022.74 1022.62 1022.46 1022.34 1022.22 1022.14 1022.02 1021.94 1021.90 1021.90 1021.98 1021.98 1021.94 1021.90 1021.74 1021.58 1021.42 1021.34 1021.30 1021.18 1021.02 1020.82 1020.70 1020.58 1020.42 1020.26 1020.14
1024.50 1024.46 1024.46 1024.50 1024.54 1024.54 1024.58 1024.66 1024.74 1024.74 1024.74 1024.70 1024.66 1024.62 1024.62 1024.58 1024.58 1024.58 1024.54 1024.50 1024.46 1024.38 1024.30 1024.18 1024.10 1024.02 1023.98 1023.90 1023.86 1023.78 1023.74 1023.66 1023.66 1023.58 1023.54 1023.46 1023.34 1023.30 1023.18 1023.10 1023.02 1022.86 1022.78 1022.70 1022.62 1022.54 1022.42 1022.30 1022.18 1022.10 1022.10 1022.06 1022.10 1022.10 1022.02 1021.94 1021.86 1021.74 1021.58 1021.46 1021.38 1021.26 1021.10 1020.94 1020.82 1020.66 1020.50 1020.34 1020.18
1024.62 1024.62 1024.66 1024.70 1024.74 1024.74 1024.74 1024.78 1024.82 1024.86 1024.82 1024.74 1024.74 1024.70 1024.66 1024.66 1024.66 1024.58 1024.58 1024.54 1024.46 1024.42 1024.34 1024.26 1024.18 1024.06 1024.02 1023.90 1023.86 1023.78 1023.74 1023.70 1023.70 1023.62 1023.58 1023.46 1023.42 1023.30 1023.26 1023.18 1023.06 1022.98 1022.86 1022.78 1022.74 1022.62 1022.54 1022.42 1022.30 1022.26 1022.26 1022.18 1022.22 1022.22 1022.14 1022.02 1021.94 1021.86 1021.74 1021.58 1021.46 1021.30 1021.18 1021.06 1020.94 1020.78 1020.58 1020.46 1020.30
1024.78 1024.78 1024.82 1024.82 1024.86 1024.86 1024.82 1024.82 1024.86 1024.90 1024.86 1024.82 1024.78 1024.74 1024.74 1024.70 1024.70 1024.66 1024.58 1024.54 1024.50 1024.46 1024.42 1024.30 1024.26 1024.18 1024.02 1023.94 1023.90 1023.86 1023.82 1023.74 1023.74 1023.70 1023.58 1023.54 1023.46 1023.34 1023.30 1023.18 1023.10 1023.02 1022.94 1022.86 1022.78 1022.74 1022.58 1022.50 1022.42 1022.38 1022.38 1022.30 1022.30 1022.26 1022.22 1022.14 1022.02 1021.90 1021.78 1021.62 1021.46 1021.34 1021.22 1021.10 1021.02 1020.86 1020.74 1020.54 1020.38
1024.94 1024.94 1024.90 1024.90 1024.90 1024.90 1024.86 1024.86 1024.86 1024.90 1024.86 1024.86 1024.86 1024.86 1024.82 1024.78 1024.74 1024.74 1024.70 1024.66 1024.58 1024.54 1024.46 1024.38 1024.30 1024.18 1024.10 1024.02 1023.94 1023.90 1023.86 1023.82 1023.74 1023.70 1023.62 1023.58 1023.46 1023.38 1023.30 1023.22 1023.18 1023.10 1023.02 1022.94 1022.82 1022.74 1022.70 1022.62 1022.50 1022.46 1022.46 1022.38 1022.30 1022.30 1022.26 1022.18 1022.06 1021.94 1021.82 1021.70 1021.54 1021.42 1021.30 1021.18 1021.06 1020.94 1020.78 1020.62 1020.46
1025.02 1025.02 1025.02 1025.02 1025.02 1024.98 1024.98 1024.98 1024.94 1024.94 1024.90 1024.90 1024.90 1024.94 1024.94 1024.90 1024.86 1024.82 1024.78 1024.74 1024.62 1024.54 1024.46 1024.42 1024.30 1024.22 1024.18 1024.10 1024.02 1023.98 1023.90 1023.86 1023.78 1023.74 1023.66 1023.58 1023.50 1023.42 1023.34 1023.26 1023.18 1023.14 1023.02 1022.98 1022.86 1022.82 1022.74 1022.74 1022.62 1022.58 1022.50 1022.46 1022.34 1022.30 1022.26 1022.18 1022.10 1021.98 1021.86 1021.74 1021.58 1021.46 1021.38 1021.30 1021.18 1021.02 1020.86 1020.70 1020.50
1025.06 1025.06 1025.10 1025.10 1025.06 1025.06 1025.06 1025.02 1025.02 1025.02 1024.98 1024.98 1025.02 1025.02 1025.02 1024.98 1024.90 1024.86 1024.78 1024.74 1024.62 1024.58 1024.50 1024.46 1024.34 1024.30 1024.18 1024.18 1024.10 1024.02 1023.98 1023.90 1023.82 1023.74 1023.70 1023.62 1023.54 1023.46 1023.38 1023.30 1023.22 1023.14 1023.06 1023.02 1022.90 1022.86 1022.82 1022.74 1022.66 1022.62 1022.58 1022.54 1022.46 1022.34 1022.30 1022.22 1022.14 1022.02 1021.94 1021.82 1021.70 1021.58 1021.50 1021.38 1021.22 1021.10 1020.94 1020.74 1020.58
1025.18 1025.18 1025.18 1025.18 1025.14 1025.14 1025.18 1025.14 1025.10 1025.10 1025.10 1025.10 1025.14 1025.10 1025.02 1025.02 1024.94 1024.86 1024.82 1024.74 1024.70 1024.62 1024.58 1024.46 1024.38 1024.30 1024.26 1024.18 1024.14 1024.06 1024.02 1023.94 1023.90 1023.78 1023.74 1023.66 1023.58 1023.50 1023.42 1023.34 1023.26 1023.18 1023.10 1023.02 1022.94 1022.90 1022.86 1022.78 1022.74 1022.70 1022.62 1022.58 1022.50 1022.42 1022.30 1022.22 1022.14 1022.06 1022.02 1021.90 1021.78 1021.70 1021.58 1021.46 1021.30 1021.18 1021.02 1020.86 1020.70
1025.30 1025.30 1025.26 1025.22 1025.22 1025.22 1025.22 1025.18 1025.18 1025.18 1025.18 1025.18 1025.18 1025.14 1025.06 1025.02 1024.94 1024.90 1024.86 1024.82 1024.74 1024.66 1024.58 1024.50 1024.46 1024.38 1024.30 1024.26 1024.18 1024.14 1024.06 1024.02 1023.94 1023.86 1023.78 1023.74 1023.62 1023.54 1023.46 1023.38 1023.30 1023.22 1023.14 1023.02 1022.94 1022.90 1022.86 1022.82 1022.78 1022.74 1022.70 1022.62 1022.58 1022.46 1022.34 1022.26 1022.18 1022.10 1022.02 1021.94 1021.86 1021.74 1021.66 1021.54 1021.38 1021.30 1021.14 1020.98 1020.82
1025.46 1025.42 1025.38 1025.34 1025.30 1025.30 1025.30 1025.30 1025.26 1025.26 1025.26 1025.22 1025.18 1025.18 1025.10 1025.02 1024.98 1024.94 1024.86 1024.82 1024.74 1024.70 1024.62 1024.58 1024.50 1024.46 1024.38 1024.30 1024.26 1024.18 1024.14 1024.06 1024.02 1023.90 1023.82 1023.74 1023.66 1023.58 1023.50 1023.42 1023.30 1023.26 1023.18 1023.10 1023.02 1022.98 1022.90 1022.86 1022.86 1022.78 1022.74 1022.66 1022.58 1022.46 1022.38 1022.30 1022.18 1022.14 1022.06 1022.02 1021.90 1021.82 1021.74 1021.58 1021.46 1021.34 1021.22 1021.06 1020.90
1025.58 1025.50 1025.46 1025.46 1025.38 1025.38 1025.34 1025.34 1025.34 1025.34 1025.30 1025.30 1025.26 1025.18 1025.14 1025.06 1025.02 1024.98 1024.90 1024.86 1024.82 1024.78 1024.70 1024.62 1024.58 1024.50 1024.46 1024.42 1024.30 1024.22 1024.18 1024.10 1024.02 1023.98 1023.90 1023.78 1023.66 1023.58 1023.50 1023.46 1023.34 1023.26 1023.18 1023.14 1023.06 1023.02 1022.94 1022.90 1022.86 1022.82 1022.74 1022.66 1022.58 1022.50 1022.42 1022.34 1022.26 1022.18 1022.10 1022.02 1021.90 1021.86 1021.74 1021.62 1021.50 1021.38 1021.26 1021.14 1020.98
1025.62 1025.58 1025.54 1025.46 1025.46 1025.46 1025.46 1025.46 1025.42 1025.42 1025.38 1025.34 1025.30 1025.26 1025.18 1025.14 1025.10 1025.02 1024.98 1024.90 1024.90 1024.86 1024.74 1024.70 1024.62 1024.54 1024.50 1024.46 1024.38 1024.30 1024.22 1024.18 1024.10 1024.02 1023.94 1023.82 1023.74 1023.62 1023.54 1023.46 1023.38 1023.30 1023.18 1023.18 1023.10 1023.06 1023.02 1022.94 1022.86 1022.86 1022.78 1022.70 1022.62 1022.50 1022.46 1022.38 1022.30 1022.22 1022.14 1022.02 1021.94 1021.86 1021.78 1021.70 1021.58 1021.46 1021.30 1021.18 1021.02
1025.66 1025.62 1025.62 1025.58 1025.54 1025.50 1025.50 1025.50 1025.46 1025.46 1025.46 1025.42 1025.38 1025.30 1025.26 1025.18 1025.14 1025.10 1025.06 1025.02 1024.98 1024.86 1024.82 1024.74 1024.66 1024.58 1024.54 1024.46 1024.42 1024.34 1024.26 1024.18 1024.14 1024.02 1023.94 1023.86 1023.74 1023.66 1023.58 1023.46 1023.34 1023.30 1023.22 1023.18 1023.10 1023.02 1023.02 1022.94 1022.86 1022.86 1022.78 1022.74 1022.62 1022.50 1022.42 1022.34 1022.30 1022.22 1022.18 1022.10 1022.02 1021.90 1021.82 1021.70 1021.58 1021.46 1021.30 1021.18 1021.02
1025.70 1025.66 1025.66 1025.62 1025.58 1025.58 1025.58 1025.58 1025.58 1025.54 1025.50 1025.50 1025.46 1025.38 1025.30 1025.26 1025.18 1025.18 1025.14 1025.06 1025.02 1024.94 1024.86 1024.82 1024.74 1024.62 1024.50 1024.46 1024.42 1024.34 1024.30 1024.22 1024.18 1024.06 1023.98 1023.90 1023.74 1023.70 1023.58 1023.50 1023.38 1023.30 1023.22 1023.18 1023.06 1023.02 1022.98 1022.90 1022.86 1022.82 1022.74 1022.70 1022.58 1022.50 1022.42 1022.30 1022.26 1022.18 1022.18 1022.10 1022.02 1021.90 1021.82 1021.70 1021.54 1021.46 1021.30 1021.22 1021.10
1025.74 1025.70 1025.70 1025.66 1025.62 1025.62 1025.66 1025.66 1025.62 1025.58 1025.58 1025.58 1025.50 1025.46 1025.38 1025.30 1025.26 1025.18 1025.14 1025.10 1025.06 1025.02 1024.90 1024.86 1024.74 1024.62 1024.54 1024.46 1024.38 1024.30 1024.30 1024.22 1024.18 1024.10 1024.02 1023.90 1023.82 1023.74 1023.62 1023.54 1023.42 1023.30 1023.22 1023.18 1023.06 1022.98 1022.90 1022.86 1022.82 1022.78 1022.74 1022.62 1022.58 1022.46 1022.38 1022.30 1022.26 1022.18 1022.10 1022.02 1021.98 1021.90 1021.78 1021.66 1021.54 1021.42 1021.30 1021.22 1021.14
1025.74 1025.74 1025.74 1025.74 1025.74 1025.74 1025.74 1025.74 1025.70 1025.70 1025.66 1025.62 1025.58 1025.50 1025.46 1025.38 1025.30 1025.26 1025.18 1025.14 1025.10 1025.02 1024.94 1024.86 1024.74 1024.66 1024.58 1024.46 1024.38 1024.34 1024.30 1024.26 1024.18 1024.10 1024.02 1023.98 1023.86 1023.74 1023.62 1023.54 1023.42 1023.30 1023.18 1023.14 1023.06 1022.98 1022.86 1022.78 1022.74 1022.66 1022.62 1022.58 1022.46 1022.42 1022.34 1022.26 1022.22 1022.18 1022.10 1022.02 1021.98 1021.90 1021.78 1021.70 1021.58 1021.46 1021.38 1021.26 1021.18
1025.86 1025.82 1025.78 1025.78 1025.82 1025.82 1025.82 1025.82 1025.78 1025.74 1025.74 1025.66 1025.62 1025.58 1025.46 1025.42 1025.38 1025.30 1025.22 1025.18 1025.10 1025.06 1025.02 1024.86 1024.78 1024.66 1024.58 1024.50 1024.42 1024.38 1024.34 1024.30 1024.18 1024.14 1024.02 1023.94 1023.86 1023.74 1023.58 1023.50 1023.34 1023.18 1023.14 1023.06 1023.02 1022.94 1022.86 1022.74 1022.62 1022.58 1022.54 1022.46 1022.42 1022.34 1022.30 1022.30 1022.22 1022.18 1022.14 1022.02 1021.98 1021.90 1021.82 1021.74 1021.66 1021.58 1021.46 1021.34 1021.22
1025.90 1025.90 1025.90 1025.90 1025.90 1025.90 1025.90 1025.86 1025.82 1025.78 1025.74 1025.70 1025.62 1025.58 1025.50 1025.42 1025.38 1025.30 1025.22 1025.14 1025.10 1025.06 1025.02 1024.90 1024.78 1024.70 1024.58 1024.54 1024.46 1024.34 1024.30 1024.26 1024.18 1024.10 1024.02 1023.90 1023.74 1023.66 1023.54 1023.42 1023.26 1023.14 1023.06 1022.98 1022.90 1022.86 1022.78 1022.70 1022.58 1022.54 1022.46 1022.46 1022.38 1022.30 1022.30 1022.26 1022.26 1022.22 1022.18 1022.18 1022.10 1022.02 1021.90 1021.82 1021.74 1021.62 1021.54 1021.46 1021.30
1025.98 1025.98 1025.94 1025.94 1025.90 1025.90 1025.90 1025.82 1025.78 1025.78 1025.74 1025.66 1025.62 1025.58 1025.50 1025.46 1025.38 1025.34 1025.26 1025.18 1025.10 1025.02 1024.98 1024.90 1024.82 1024.74 1024.58 1024.50 1024.42 1024.30 1024.26 1024.18 1024.10 1024.02 1023.90 1023.82 1023.70 1023.58 1023.46 1023.30 1023.18 1023.06 1022.98 1022.90 1022.86 1022.78 1022.74 1022.66 1022.58 1022.54 1022.46 1022.46 1022.38 1022.34 1022.30 1022.30 1022.30 1022.30 1022.26 1022.26 1022.18 1022.10 1022.02 1021.86 1021.74 1021.62 1021.54 1021.46 1021.30
1025.98 1025.98 1025.94 1025.90 1025.90 1025.90 1025.82 1025.78 1025.74 1025.74 1025.70 1025.66 1025.58 1025.58 1025.50 1025.42 1025.34 1025.30 1025.26 1025.18 1025.06 1025.02 1024.98 1024.86 1024.82 1024.74 1024.58 1024.50 1024.42 1024.30 1024.18 1024.06 1024.02 1023.94 1023.86 1023.74 1023.62 1023.46 1023.34 1023.26 1023.18 1023.06 1022.98 1022.86 1022.82 1022.74 1022.70 1022.62 1022.58 1022.50 1022.46 1022.46 1022.42 1022.38 1022.38 1022.38 1022.34 1022.30 1022.26 1022.18 1022.10 1022.02 1021.94 1021.86 1021.74 1021.62 1021.50 1021.38 1021.30
1025.94 1025.90 1025.90 1025.90 1025.86 1025.82 1025.78 1025.74 1025.74 1025.70 1025.66 1025.62 1025.58 1025.54 1025.46 1025.42 1025.30 1025.26 1025.18 1025.14 1025.06 1025.02 1024.94 1024.86 1024.78 1024.70 1024.58 1024.46 1024.38 1024.26 1024.14 1024.02 1023.94 1023.86 1023.74 1023.62 1023.54 1023.38 1023.26 1023.18 1023.14 1023.06 1022.98 1022.86 1022.74 1022.74 1022.66 1022.58 1022.54 1022.50 1022.46 1022.46 1022.42 1022.42 1022.42 1022.38 1022.34 1022.26 1022.14 1022.02 1021.94 1021.90 1021.82 1021.74 1021.70 1021.58 1021.50 1021.38 1021.26
1025.86 1025.82 1025.82 1025.78 1025.78 1025.74 1025.74 1025.74 1025.74 1025.70 1025.66 1025.58 1025.54 1025.50 1025.46 1025.38 1025.30 1025.26 1025.18 1025.10 1025.02 1024.98 1024.90 1024.82 1024.74 1024.62 1024.50 1024.38 1024.30 1024.22 1024.14 1024.02 1023.90 1023.74 1023.62 1023.58 1023.46 1023.34 1023.22 1023.18 1023.14 1023.06 1023.02 1022.86 1022.78 1022.74 1022.66 1022.58 1022.46 1022.42 1022.42 1022.42 1022.38 1022.34 1022.34 1022.30 1022.26 1022.18 1022.06 1021.94 1021.86 1021.78 1021.74 1021.74 1021.66 1021.58 1021.46 1021.30 1021.22
1025.82 1025.78 1025.74 1025.74 1025.74 1025.74 1025.74 1025.70 1025.70 1025.66 1025.62 1025.58 1025.50 1025.46 1025.42 1025.34 1025.30 1025.22 1025.18 1025.06 1025.02 1024.94 1024.86 1024.74 1024.66 1024.54 1024.42 1024.30 1024.18 1024.14 1024.10 1024.02 1023.90 1023.74 1023.58 1023.50 1023.42 1023.30 1023.26 1023.18 1023.14 1023.06 1022.98 1022.86 1022.74 1022.58 1022.54 1022.46 1022.38 1022.30 1022.30 1022.30 1022.30 1022.30 1022.30 1022.26 1022.18 1022.14 1022.06 1022.02 1021.94 1021.86 1021.78 1021.74 1021.66 1021.58 1021.46 1021.30 1021.18
1025.74 1025.74 1025.74 1025.70 1025.74 1025.74 1025.74 1025.74 1025.70 1025.66 1025.58 1025.54 1025.46 1025.46 1025.42 1025.30 1025.30 1025.26 1025.18 1025.10 1025.02 1024.90 1024.82 1024.70 1024.58 1024.46 1024.30 1024.22 1024.14 1024.06 1024.02 1023.98 1023.90 1023.78 1023.66 1023.50 1023.38 1023.30 1023.26 1023.18 1023.10 1023.02 1022.90 1022.74 1022.58 1022.42 1022.30 1022.30 1022.18 1022.18 1022.18 1022.22 1022.26 1022.26 1022.26 1022.22 1022.22 1022.18 1022.10 1022.02 1021.98 1021.90 1021.90 1021.78 1021.70 1021.54 1021.42 1021.30 1021.18
1025.74 1025.74 1025.74 1025.70 1025.66 1025.66 1025.70 1025.70 1025.62 1025.58 1025.54 1025.50 1025.46 1025.42 1025.38 1025.34 1025.30 1025.30 1025.26 1025.18 1025.02 1024.86 1024.74 1024.62 1024.50 1024.42 1024.30 1024.18 1024.10 1024.02 1023.94 1023.90 1023.82 1023.74 1023.70 1023.58 1023.46 1023.34 1023.26 1023.18 1023.10 1022.98 1022.86 1022.70 1022.50 1022.34 1022.22 1022.10 1022.02 1022.02 1022.10 1022.18 1022.18 1022.22 1022.26 1022.22 1022.22 1022.18 1022.18 1022.06 1022.02 1021.94 1021.90 1021.86 1021.70 1021.58 1021.46 1021.30 1021.18
1025.74 1025.70 1025.66 1025.62 1025.62 1025.66 1025.62 1025.62 1025.58 1025.58 1025.50 1025.50 1025.46 1025.42 1025.34 1025.30 1025.30 1025.30 1025.26 1025.18 1025.02 1024.82 1024.66 1024.58 1024.46 1024.38 1024.30 1024.22 1024.14 1024.06 1023.94 1023.86 1023.74 1023.70 1023.62 1023.58 1023.46 1023.42 1023.30 1023.18 1023.06 1022.94 1022.82 1022.66 1022.46 1022.34 1022.22 1022.06 1021.98 1021.90 1021.94 1022.10 1022.18 1022.22 1022.26 1022.26 1022.30 1022.26 1022.18 1022.10 1022.02 1021.94 1021.90 1021.90 1021.74 1021.58 1021.46 1021.30 1021.18
1025.66 1025.62 1025.58 1025.58 1025.62 1025.62 1025.58 1025.58 1025.58 1025.54 1025.46 1025.46 1025.42 1025.38 1025.30 1025.30 1025.30 1025.30 1025.22 1025.10 1024.94 1024.82 1024.66 1024.54 1024.42 1024.30 1024.26 1024.18 1024.14 1024.06 1023.94 1023.82 1023.70 1023.62 1023.58 1023.50 1023.42 1023.34 1023.26 1023.18 1023.02 1022.90 1022.78 1022.62 1022.46 1022.30 1022.18 1022.10 1021.98 1021.86 1021.82 1021.98 1022.10 1022.18 1022.18 1022.26 1022.26 1022.22 1022.18 1022.06 1022.02 1021.94 1021.90 1021.86 1021.74 1021.66 1021.54 1021.38 1021.22
1025.58 1025.58 1025.58 1025.62 1025.62 1025.58 1025.54 1025.58 1025.54 1025.46 1025.42 1025.38 1025.34 1025.34 1025.30 1025.30 1025.30 1025.22 1025.18 1025.06 1024.90 1024.78 1024.66 1024.50 1024.42 1024.30 1024.26 1024.18 1024.14 1024.02 1023.90 1023.78 1023.66 1023.58 1023.54 1023.46 1023.38 1023.30 1023.18 1023.14 1023.02 1022.90 1022.74 1022.58 1022.46 1022.30 1022.18 1022.10 1021.98 1021.86 1021.74 1021.74 1022.06 1022.18 1022.18 1022.18 1022.18 1022.14 1022.06 1022.02 1022.06 1022.02 1021.98 1021.90 1021.82 1021.70 1021.58 1021.42 1021.30
1025.54 1025.54 1025.58 1025.58 1025.58 1025.54 1025.54 1025.50 1025.46 1025.38 1025.34 1025.38 1025.34 1025.34 1025.30 1025.30 1025.26 1025.18 1025.14 1025.02 1024.90 1024.74 1024.62 1024.50 1024.42 1024.38 1024.30 1024.18 1024.10 1023.98 1023.86 1023.74 1023.62 1023.58 1023.54 1023.50 1023.42 1023.30 1023.18 1023.14 1023.06 1022.98 1022.82 1022.62 1022.46 1022.30 1022.18 1022.02 1021.94 1021.82 1021.74 1021.70 1022.02 1022.18 1022.18 1022.18 1022.18 1022.18 1022.10 1022.10 1022.10 1022.10 1022.06 1021.98 1021.86 1021.74 1021.58 1021.46 1021.30
1025.46 1025.50 1025.54 1025.54 1025.58 1025.54 1025.46 1025.38 1025.38 1025.38 1025.34 1025.38 1025.34 1025.30 1025.30 1025.30 1025.22 1025.14 1025.02 1024.94 1024.86 1024.70 1024.54 1024.46 1024.46 1024.38 1024.26 1024.10 1024.02 1023.98 1023.90 1023.74 1023.62 1023.58 1023.54 1023.50 1023.46 1023.34 1023.26 1023.18 1023.10 1023.02 1022.82 1022.58 1022.42 1022.26 1022.14 1022.02 1021.94 1021.82 1021.78 1021.90 1022.14 1022.26 1022.30 1022.30 1022.30 1022.26 1022.18 1022.18 1022.14 1022.06 1022.02 1021.94 1021.90 1021.74 1021.58 1021.46 1021.38
1025.46 1025.46 1025.50 1025.50 1025.54 1025.46 1025.42 1025.34 1025.34 1025.34 1025.38 1025.34 1025.34 1025.30 1025.30 1025.26 1025.18 1025.02 1024.94 1024.86 1024.74 1024.66 1024.54 1024.46 1024.42 1024.30 1024.18 1024.10 1023.98 1023.90 1023.86 1023.74 1023.70 1023.58 1023.58 1023.54 1023.46 1023.42 1023.34 1023.26 1023.14 1023.02 1022.82 1022.54 1022.38 1022.26 1022.18 1022.06 1021.98 1021.94 1021.98 1022.10 1022.26 1022.38 1022.46 1022.46 1022.42 1022.34 1022.30 1022.18 1022.10 1022.02 1021.98 1021.90 1021.78 1021.62 1021.50 1021.42 1021.30
1025.42 1025.46 1025.46 1025.46 1025.46 1025.42 1025.34 1025.30 1025.34 1025.38 1025.34 1025.30 1025.30 1025.30 1025.26 1025.18 1025.06 1024.98 1024.86 1024.78 1024.70 1024.62 1024.58 1024.46 1024.38 1024.30 1024.26 1024.18 1024.02 1023.90 1023.82 1023.74 1023.70 1023.66 1023.58 1023.58 1023.58 1023.50 1023.38 1023.26 1023.14 1022.98 1022.74 1022.46 1022.38 1022.30 1022.22 1022.14 1022.06 1022.10 1022.18 1022.30 1022.42 1022.50 1022.50 1022.46 1022.42 1022.34 1022.26 1022.18 1022.06 1021.98 1021.90 1021.78 1021.66 1021.58 1021.46 1021.34 1021.22
1025.38 1025.42 1025.46 1025.46 1025.42 1025.34 1025.34 1025.34 1025.34 1025.38 1025.38 1025.34 1025.30 1025.26 1025.18 1025.14 1025.02 1024.94 1024.82 1024.74 1024.66 1024.58 1024.46 1024.42 1024.30 1024.22 1024.18 1024.10 1024.02 1023.98 1023.86 1023.74 1023.74 1023.70 1023.66 1023.62 1023.58 1023.50 1023.42 1023.30 1023.14 1022.94 1022.74 1022.50 1022.42 1022.34 1022.30 1022.26 1022.26 1022.30 1022.34 1022.38 1022.46 1022.46 1022.46 1022.42 1022.38 1022.30 1022.22 1022.14 1022.02 1021.90 1021.82 1021.74 1021.58 1021.50 1021.38 1021.30 1021.18
1025.30 1025.38 1025.38 1025.38 1025.34 1025.34 1025.34 1025.38 1025.34 1025.38 1025.38 1025.34 1025.26 1025.18 1025.14 1025.06 1025.02 1024.90 1024.78 1024.66 1024.58 1024.50 1024.42 1024.30 1024.22 1024.18 1024.06 1023.98 1023.94 1023.90 1023.90 1023.78 1023.74 1023.70 1023.66 1023.66 1023.58 1023.54 1023.46 1023.30 1023.18 1022.94 1022.74 1022.54 1022.46 1022.42 1022.38 1022.34 1022.38 1022.38 1022.42 1022.46 1022.50 1022.46 1022.46 1022.42 1022.34 1022.30 1022.18 1022.10 1021.98 1021.86 1021.74 1021.66 1021.58 1021.46 1021.38 1021.30 1021.18
1025.26 1025.30 1025.34 1025.34 1025.34 1025.30 1025.34 1025.34 1025.38 1025.38 1025.38 1025.30 1025.22 1025.18 1025.10 1025.02 1024.90 1024.82 1024.74 1024.58 1024.58 1024.50 1024.38 1024.30 1024.18 1024.14 1024.02 1023.98 1023.90 1023.90 1023.90 1023.82 1023.74 1023.66 1023.58 1023.62 1023.62 1023.58 1023.46 1023.34 1023.18 1023.02 1022.82 1022.58 1022.50 1022.42 1022.42 1022.46 1022.46 1022.46 1022.46 1022.46 1022.50 1022.50 1022.46 1022.38 1022.34 1022.30 1022.18 1022.14 1022.02 1021.90 1021.78 1021.70 1021.58 1021.46 1021.34 1021.26 1021.14
1025.18 1025.26 1025.30 1025.30 1025.30 1025.30 1025.30 1025.30 1025.38 1025.38 1025.34 1025.26 1025.18 1025.14 1025.02 1024.98 1024.82 1024.70 1024.62 1024.58 1024.58 1024.54 1024.46 1024.30 1024.22 1024.14 1024.06 1024.02 1023.90 1023.90 1023.86 1023.82 1023.74 1023.66 1023.62 1023.62 1023.62 1023.62 1023.54 1023.42 1023.30 1023.14 1022.94 1022.74 1022.58 1022.46 1022.46 1022.46 1022.42 1022.42 1022.46 1022.46 1022.46 1022.46 1022.46 1022.42 1022.34 1022.30 1022.22 1022.14 1022.02 1021.90 1021.74 1021.66 1021.54 1021.46 1021.30 1021.22 1021.06
1025.14 1025.18 1025.26 1025.30 1025.30 1025.26 1025.30 1025.30 1025.34 1025.30 1025.26 1025.18 1025.14 1025.06 1024.98 1024.90 1024.78 1024.66 1024.58 1024.54 1024.54 1024.54 1024.46 1024.38 1024.26 1024.18 1024.06 1024.02 1023.94 1023.86 1023.78 1023.78 1023.74 1023.74 1023.70 1023.66 1023.74 1023.74 1023.66 1023.50 1023.34 1023.26 1023.10 1022.86 1022.66 1022.58 1022.46 1022.42 1022.38 1022.34 1022.38 1022.46 1022.46 1022.46 1022.46 1022.42 1022.34 1022.30 1022.22 1022.10 1021.98 1021.90 1021.74 1021.58 1021.50 1021.38 1021.30 1021.18 1020.94
1025.02 1025.10 1025.18 1025.18 1025.22 1025.22 1025.22 1025.30 1025.30 1025.22 1025.18 1025.10 1025.02 1024.98 1024.90 1024.86 1024.74 1024.58 1024.46 1024.46 1024.46 1024.50 1024.50 1024.46 1024.30 1024.18 1024.06 1024.02 1023.98 1023.90 1023.78 1023.78 1023.74 1023.74 1023.78 1023.78 1023.78 1023.74 1023.70 1023.62 1023.50 1023.38 1023.22 1022.94 1022.74 1022.66 1022.58 1022.46 1022.34 1022.30 1022.30 1022.46 1022.46 1022.46 1022.42 1022.42 1022.34 1022.30 1022.18 1022.06 1021.94 1021.82 1021.66 1021.54 1021.46 1021.30 1021.18 1021.06 1020.74
1025.02 1025.02 1025.06 1025.14 1025.14 1025.14 1025.18 1025.18 1025.18 1025.10 1025.06 1025.02 1025.02 1024.94 1024.86 1024.74 1024.58 1024.46 1024.42 1024.42 1024.46 1024.46 1024.50 1024.46 1024.30 1024.18 1024.14 1024.10 1024.06 1024.02 1023.90 1023.86 1023.86 1023.86 1023.90 1023.90 1023.82 1023.70 1023.62 1023.70 1023.58 1023.50 1023.34 1023.10 1022.90 1022.78 1022.70 1022.58 1022.46 1022.30 1022.26 1022.38 1022.42 1022.42 1022.38 1022.38 1022.30 1022.22 1022.14 1021.98 1021.90 1021.74 1021.58 1021.46 1021.34 1021.22 1021.06 1020.90 1020.66
1024.98 1025.02 1025.02 1025.06 1025.02 1025.06 1025.10 1025.10 1025.02 1025.02 1024.98 1024.98 1024.94 1024.86 1024.74 1024.62 1024.58 1024.46 1024.42 1024.46 1024.42 1024.42 1024.46 1024.42 1024.30 1024.26 1024.18 1024.18 1024.10 1024.06 1024.06 1024.02 1023.98 1023.98 1023.98 1023.94 1023.90 1023.78 1023.74 1023.74 1023.70 1023.58 1023.46 1023.26 1023.06 1022.94 1022.82 1022.70 1022.54 1022.38 1022.26 1022.22 1022.30 1022.30 1022.30 1022.30 1022.22 1022.14 1022.02 1021.86 1021.74 1021.58 1021.46 1021.30 1021.18 1021.02 1020.90 1020.74 1020.58
Wind_Speed
7 7 6 6 5 5 5 5 4 4 4 4 3 3 3 3 3 3 2 2 2 2 2 2 3 3 4 5 5 5 5 4 5 5 6 6 6 7 7 7 7 7 7 8 8 7 7 7 6 5 5 5 6 6 6 7 8 8 8 9 8 8 9 9 9 10 11 11 9
8 7 7 6 5 5 4 4 4 4 4 3 3 3 3 3 3 2 2 2 2 2 2 2 3 3 4 6 6 5 5 5 5 5 6 6 6 6 7 7 7 7 7 8 8 7 7 7 6 5 5 5 5 6 6 6 7 8 8 9 7 6 7 7 8 9 9 9 9
7 7 7 7 6 5 5 4 4 4 4 3 3 3 2 2 2 2 2 1 2 2 2 3 3 4 5 6 6 6 5 4 5 5 6 6 6 6 6 7 7 7 7 7 8 7 7 7 5 5 5 5 5 5 5 6 6 7 7 7 6 5 5 6 7 7 7 6 8
7 7 7 7 7 6 5 4 4 4 3 3 3 2 2 2 2 2 2 2 2 2 3 3 4 4 5 7 7 6 5 4 5 5 5 5 6 6 6 6 7 7 7 7 8 8 7 7 5 4 4 5 5 4 5 5 5 5 5 5 4 4 5 5 6 6 6 6 7
6 6 6 6 6 5 5 4 4 3 3 2 3 3 3 2 2 2 2 2 3 3 3 4 4 4 5 6 7 6 5 5 5 5 5 5 5 5 5 6 6 6 6 7 7 7 7 6 4 3 3 3 3 3 4 5 5 4 4 3 4 4 4 5 5 5 6 6 7
5 5 5 5 5 4 4 3 3 3 2 2 3 3 3 3 3 3 3 3 4 4 4 4 4 4 5 6 6 6 6 5 5 5 5 5 5 5 6 6 5 5 5 6 6 6 6 4 3 3 3 3 3 3 4 5 5 4 4 4 4 4 4 5 5 5 6 7 8
5 5 5 4 4 4 3 3 3 2 2 3 3 3 3 3 3 3 4 3 4 4 4 4 5 5 6 6 6 6 6 6 5 5 5 5 5 5 5 5 5 5 5 5 5 5 5 4 3 3 3 3 3 4 5 5 5 5 5 5 4 4 5 5 5 5 6 8 9
5 4 4 4 4 4 3 3 3 2 2 3 3 3 3 3 4 4 4 4 4 4 4 4 5 6 6 6 6 6 6 6 6 5 5 5 5 5 5 5 5 5 5 5 4 4 4 4 3 3 3 3 3 4 5 6 5 5 5 5 5 4 4 4 5 5 6 8 9
4 4 3 3 3 3 3 2 3 3 3 2 2 2 2 3 4 4 4 4 4 4 4 4 5 6 6 6 6 6 6 6 6 6 5 5 5 6 5 5 5 5 5 4 4 4 4 3 3 3 3 3 3 4 5 6 6 5 5 5 5 5 5 5 6 6 7 8 9
4 3 3 3 3 2 2 2 2 3 3 2 2 2 3 3 4 4 4 3 4 4 5 5 5 5 6 6 6 5 5 5 5 5 5 5 6 6 6 5 5 5 5 4 4 4 4 3 3 3 3 3 3 4 5 5 5 5 5 4 4 5 6 5 6 7 7 7 8
3 3 3 3 3 2 2 2 3 3 3 3 3 3 3 4 4 4 3 3 4 5 5 5 5 5 5 5 5 5 5 4 5 5 5 6 6 6 6 6 6 5 5 5 4 3 3 3 3 4 4 4 4 4 5 5 5 5 5 4 5 5 6 6 6 6 6 6 7
3 3 3 3 3 3 3 3 3 3 3 4 4 4 4 4 4 4 4 4 5 5 5 5 5 5 4 4 4 5 5 5 5 5 5 6 6 6 6 6 6 6 6 5 4 3 3 3 3 4 5 5 4 4 4 5 5 5 5 5 5 5 5 6 6 6 5 5 6
2 3 3 3 3 3 3 3 3 3 4 4 4 4 4 4 4 4 4 5 5 5 4 4 4 4 4 4 4 4 4 5 5 5 5 5 6 6 6 6 6 6 6 5 4 3 3 3 3 4 4 5 4 4 4 4 4 4 4 5 5 5 5 6 6 6 5 5 6
2 3 3 4 4 4 4 4 3 4 4 4 4 4 4 5 5 4 4 5 5 5 4 4 4 4 4 4 4 4 4 5 5 5 5 6 6 6 6 6 6 6 6 5 4 4 3 3 3 3 4 5 5 5 4 4 3 3 3 4 4 5 5 5 5 5 5 6 6
3 3 3 4 4 4 4 4 3 3 4 4 4 4 4 4 5 4 4 4 4 4 4 4 4 4 4 5 4 4 4 4 5 5 6 6 6 6 6 6 6 6 6 6 5 4 4 4 3 3 3 4 5 5 5 4 3 3 3 3 3 4 4 5 5 5 5 5 5
3 4 4 4 4 4 4 3 3 3 3 3 4 4 4 4 4 4 4 4 4 4 4 5 5 5 5 5 5 4 4 4 5 5 6 6 6 6 6 6 6 6 6 6 6 5 5 4 3 3 3 4 4 5 5 4 4 3 3 3 3 4 4 4 4 4 4 5 5
3 3 3 4 4 4 3 3 2 3 3 3 3 4 4 4 4 4 4 4 3 4 4 5 5 4 5 5 4 4 4 4 5 5 6 6 6 6 6 6 6 6 6 6 6 6 6 5 5 4 4 4 4 4 4 4 4 4 4 4 4 4 4 4 4 4 4 4 5
3 3 3 3 3 3 2 2 2 2 3 3 3 3 3 3 4 4 4 3 3 4 5 6 5 4 4 5 5 4 4 4 5 5 6 6 6 6 6 6 6 6 6 5 6 6 6 6 6 5 4 4 4 4 4 4 3 4 4 4 5 5 5 5 4 4 4 4 5
2 2 2 2 2 2 2 2 2 2 2 2 3 3 3 3 4 4 4 4 4 4 4 5 5 5 5 5 5 5 4 4 5 5 6 6 6 6 6 6 6 6 6 6 6 6 6 6 6 6 5 5 5 4 4 3 3 3 4 5 5 6 6 6 5 5 4 5 5
1 1 1 1 1 1 1 1 1 2 2 2 3 3 3 4 4 4 4 5 5 4 4 5 5 5 5 5 6 5 5 4 4 5 6 6 6 6 6 6 6 6 6 6 6 6 6 6 6 6 5 5 5 4 4 3 3 3 4 4 5 6 6 6 6 6 5 5 6
1 1 1 1 1 1 2 2 2 2 2 2 3 3 3 4 4 4 4 5 4 4 4 4 5 5 6 6 6 6 5 4 5 5 6 6 6 7 6 6 6 6 6 6 6 6 6 5 5 5 5 5 5 4 3 3 3 4 4 4 4 5 5 6 6 6 6 6 6
2 2 2 2 2 2 2 2 2 2 2 3 3 3 3 4 4 4 4 4 4 4 4 4 5 5 6 6 6 6 6 5 5 5 6 6 6 6 6 5 5 6 6 6 6 6 5 5 5 5 5 4 4 3 3 2 2 3 4 4 4 5 5 5 5 5 5 5 5
3 3 2 2 2 2 2 2 2 2 2 3 3 3 3 4 4 4 4 4 4 4 4 4 4 5 6 6 6 6 5 5 6 6 6 6 6 6 6 5 5 6 6 6 5 5 5 5 5 5 4 4 4 3 3 2 2 3 3 4 4 4 5 5 5 5 5 5 5
3 3 2 2 2 2 2 2 2 2 3 3 3 3 3 4 4 4 5 5 5 5 5 4 4 5 5 6 6 5 5 5 6 7 7 7 7 7 6 6 5 6 6 5 5 5 5 4 4 4 4 3 3 3 3 2 3 3 3 3 3 4 4 5 5 5 5 5 5
3 2 2 2 2 2 2 2 2 2 3 3 3 3 3 4 4 4 5 5 6 6 6 5 5 5 5 5 6 6 5 5 6 6 7 7 7 7 6 6 5 5 5 5 8 9 9 7 6 4 4 3 3 3 3 3 3 3 3 2 2 3 4 5 5 5 5 5 5
2 2 2 2 2 2 2 2 3 3 3 3 3 3 3 3 3 4 4 5 6 6 5 5 5 5 4 5 5 6 6 5 6 6 6 7 7 7 6 5 5 4 5 6 10 11 12 12 10 6 3 2 2 2 2 2 3 3 3 2 2 2 3 4 5 5 5 5 5
2 2 2 2 2 2 2 3 3 3 3 3 3 3 3 3 3 4 4 5 5 5 5 4 4 4 4 4 5 6 6 6 6 6 6 6 6 6 6 5 5 4 5 8 11 12 13 13 13 10 5 3 2 2 1 2 3 3 3 2 2 2 2 3 4 5 5 6 6
3 3 2 2 2 2 3 3 3 3 3 3 3 3 3 4 4 4 5 5 5 5 4 4 4 3 3 4 5 5 6 6 6 5 5 5 5 5 5 4 4 5 7 10 12 13 13 13 13 12 9 2 2 2 1 1 2 3 3 3 2 2 2 3 4 4 5 6 6
3 2 2 2 3 3 3 3 3 4 4 3 3 3 3 4 5 5 5 5 5 4 4 4 3 3 3 4 5 6 6 6 5 4 4 4 4 4 4 4 5 6 8 11 12 12 13 13 13 14 12 5 1 2 2 2 2 3 3 2 2 2 3 3 4 4 5 6 6
3 2 2 3 3 3 3 4 4 4 3 3 3 3 4 4 5 5 5 4 4 4 4 3 3 4 5 5 5 5 5 6 5 4 3 3 4 4 4 4 5 6 8 11 11 12 12 13 13 13 12 7 2 2 2 1 2 2 2 2 2 2 3 4 5 5 5 5 6
3 3 3 3 3 4 4 4 3 3 3 2 3 3 4 4 5 4 4 3 4 4 4 3 4 5 5 5 5 5 5 6 5 4 3 3 3 4 4 5 5 6 8 10 10 11 11 12 12 11 9 6 3 2 0 1 1 2 2 2 3 3 4 4 5 6 6 6 6
3 3 3 3 4 4 4 4 3 2 3 3 3 3 4 4 4 4 4 3 3 4 4 4 4 5 6 6 5 5 6 6 5 4 3 2 3 3 4 5 5 6 7 9 9 10 11 11 11 10 8 7 4 2 1 1 2 2 2 3 3 4 4 4 5 5 6 7 6
3 3 3 4 5 5 4 3 3 2 3 3 3 3 4 4 4 4 4 3 3 3 3 4 4 5 5 5 5 6 6 6 5 4 3 2 2 3 3 4 4 5 7 8 9 9 10 10 9 9 8 6 4 2 1 1 1 2 2 3 3 4 5 5 5 6 6 7 7
3 3 4 4 5 5 4 3 2 2 3 3 4 4 3 3 4 4 4 3 3 3 3 3 3 4 4 4 4 5 5 5 4 4 3 2 2 3 3 3 3 5 7 8 8 9 9 9 9 8 7 5 3 2 1 2 2 2 3 4 4 5 5 6 6 6 7 7 7
3 4 4 5 4 4 3 3 2 2 3 3 4 4 4 3 3 4 4 3 3 3 3 3 3 3 3 3 3 3 3 4 4 4 3 2 2 2 3 3 4 5 8 9 8 8 8 7 7 7 6 4 2 2 2 2 3 3 4 5 6 6 7 7 6 6 7 7 7
3 4 4 4 4 4 3 3 2 2 3 4 4 4 4 3 3 3 3 3 2 3 3 4 3 3 3 3 3 3 3 3 4 4 3 2 2 2 3 3 4 6 8 10 9 7 7 6 6 5 4 3 2 2 2 2 3 4 5 6 6 7 7 7 7 7 7 7 7
3 4 4 4 4 4 3 3 2 3 3 4 4 4 3 3 4 3 3 2 2 3 4 4 4 4 4 4 4 4 3 3 3 4 3 2 2 2 3 3 4 6 8 10 9 8 7 6 5 4 3 2 1 2 2 2 3 3 5 6 6 7 7 7 6 7 7 7 8
3 3 3 3 4 4 3 3 3 3 4 4 4 3 3 3 3 3 3 1 2 3 4 4 4 4 4 4 5 5 5 3 3 3 3 3 2 2 2 3 4 6 8 10 10 10 9 9 7 6 3 1 1 1 2 2 3 3 4 5 6 6 6 6 5 6 6 7 10
3 4 4 4 4 4 4 3 3 4 4 4 3 3 3 3 3 3 2 1 1 2 3 4 4 5 5 5 5 5 5 3 2 2 2 3 2 2 1 2 4 6 8 10 11 12 12 12 12 11 7 0 0 1 1 2 3 4 4 5 5 5 5 5 5 5 6 8 12
3 3 4 4 4 4 4 4 4 4 4 3 3 3 3 3 3 3 2 2 1 2 2 3 5 5 5 5 5 5 4 4 3 2 3 3 3 3 3 3 4 6 8 11 12 13 13 14 14 14 11 3 1 0 1 1 3 4 5 5 5 5 5 5 5 5 5 7 9
3 3 4 4 4 4 4 5 5 4 3 3 3 3 3 3 2 2 2 2 2 2 2 3 4 5 5 4 3 3 4 4 4 4 4 3 4 5 5 4 5 6 7 9 12 13 13 14 14 15 13 7 2 1 1 1 3 4 5 6 5 5 5 5 5 5 5 6 6
Wind_Direction
56 58 60 63 64 64 63 59 54 52 52 52 47 43 39 41 40 35 27 17 7 1 358 1 356 350 345 342 336 331 327 326 332 336 339 341 344 347 349 349 351 353 354 353 351 351 350 350 353 358 7 20 18 12 4 358 350 352 359 6 4 359 356 356 355 353 352 352 348
56 58 61 63 64 65 65 61 55 51 49 51 47 43 40 39 37 32 24 14 355 344 341 348 344 341 340 339 335 329 324 324 334 341 344 345 348 351 354 354 356 358 358 358 359 359 358 356 2 8 14 22 19 11 3 360 355 358 3 7 3 358 354 354 352 349 347 347 345
59 59 60 61 61 62 63 62 58 53 49 46 45 43 39 37 33 26 16 359 335 330 333 338 337 339 340 339 335 330 326 327 341 348 350 350 351 355 358 359 0 2 3 5 4 4 3 1 8 13 17 20 19 12 3 358 357 359 1 2 358 355 354 352 348 345 342 341 341
60 61 63 63 63 64 66 68 64 59 52 45 42 40 39 34 28 18 2 344 341 339 337 334 334 338 341 342 337 333 331 339 350 354 353 352 353 355 358 1 4 6 8 9 7 6 5 5 11 16 18 17 18 12 3 355 355 355 355 352 351 352 351 349 344 341 338 336 336
59 62 65 67 67 68 71 73 71 64 56 48 43 38 34 29 19 7 359 355 350 342 334 329 331 336 341 344 341 339 342 353 359 358 356 355 354 355 358 2 4 6 9 11 9 7 4 4 12 16 13 8 13 8 359 351 351 350 348 345 347 348 347 345 341 338 335 333 334
58 60 62 65 66 66 66 68 71 69 63 55 48 38 28 18 10 3 357 351 343 336 332 331 334 339 343 348 349 352 355 2 3 360 356 356 355 356 357 0 2 3 6 10 9 7 4 3 11 13 7 0 2 359 354 351 349 348 347 347 346 345 344 343 338 335 333 332 332
59 59 59 59 61 60 58 55 57 58 57 56 50 39 24 8 2 355 347 340 343 343 344 345 349 351 353 356 358 359 1 3 1 358 356 355 355 355 355 356 357 359 2 3 6 6 6 6 11 9 3 358 355 351 350 350 350 350 349 348 346 344 342 338 335 333 331 331 331
55 54 54 55 56 56 53 45 42 41 43 46 45 34 18 4 359 353 350 352 353 351 350 354 355 356 357 360 1 1 1 0 358 356 353 352 351 351 351 351 352 354 356 359 5 6 6 8 11 5 358 354 350 345 342 343 348 349 348 345 343 341 340 337 336 335 333 331 332
46 42 39 40 42 46 47 43 41 40 39 36 29 19 10 6 3 1 360 359 352 351 353 358 357 358 359 0 1 1 0 358 354 350 348 347 347 346 345 345 346 346 348 353 360 4 5 7 7 0 354 351 344 337 336 340 346 348 347 343 341 339 338 338 339 337 336 334 334
40 32 26 24 19 21 29 34 36 38 37 29 13 4 3 6 8 5 1 352 350 355 359 359 358 359 360 359 358 356 355 353 349 345 342 341 341 339 338 338 338 338 338 342 350 357 1 4 359 351 345 342 334 332 333 339 345 347 347 345 342 339 339 340 341 340 339 338 336
37 27 21 17 6 6 16 29 29 30 29 24 10 5 5 8 6 1 355 351 357 359 357 353 355 357 357 355 351 348 346 345 344 341 338 336 335 334 333 332 332 332 331 332 338 347 355 358 351 344 340 335 333 332 334 338 344 346 346 343 342 342 341 341 342 342 340 338 337
35 24 18 12 6 11 20 31 28 27 24 19 11 7 6 5 360 355 354 358 359 354 349 346 348 349 349 347 342 339 338 338 338 337 335 333 332 331 331 331 331 329 327 326 329 337 346 348 345 340 336 331 330 329 331 335 341 344 344 342 343 344 343 340 340 339 337 338 338
35 27 21 16 15 21 28 30 29 26 21 15 9 5 1 356 352 353 356 358 353 347 341 339 340 339 338 335 334 334 334 333 334 334 333 331 330 331 332 331 330 329 327 324 324 328 332 333 335 333 331 326 323 321 322 328 336 340 341 339 341 339 337 334 334 333 334 337 339
38 34 29 24 26 29 32 31 27 23 17 11 4 359 355 350 348 350 354 354 346 339 333 332 332 330 327 326 326 328 328 328 330 331 331 329 329 330 331 330 329 329 327 325 324 323 322 317 318 319 319 317 314 312 313 319 326 331 332 331 330 328 325 325 326 330 334 338 337
40 36 34 32 32 32 32 30 25 19 13 7 358 353 350 347 344 345 348 349 339 332 329 330 327 323 320 321 322 324 325 327 329 329 329 327 327 327 327 326 327 327 328 327 325 320 315 307 301 299 300 301 302 303 305 308 312 314 314 314 311 311 311 314 320 326 331 333 333
40 36 34 34 33 32 30 26 20 14 8 360 351 348 347 344 340 342 344 343 335 331 329 329 325 322 320 320 322 324 327 329 328 327 326 324 322 322 321 321 322 323 324 324 321 317 311 302 292 284 280 281 286 290 294 297 301 302 302 299 297 297 300 305 313 319 323 325 326
38 34 32 33 32 29 24 16 9 4 358 350 344 342 341 340 339 339 338 336 334 332 329 325 322 321 321 321 323 327 329 328 326 323 320 316 314 314 314 313 314 315 316 317 314 310 306 301 292 281 271 269 273 277 282 286 291 295 298 298 296 295 297 302 309 315 318 320 319
34 31 29 30 28 22 13 3 356 350 344 338 335 333 333 335 336 334 332 331 333 331 327 321 320 320 321 320 321 324 325 324 318 315 311 308 306 305 305 305 306 308 309 308 303 300 298 296 292 286 277 271 271 272 275 279 286 293 299 303 303 304 305 309 312 315 317 317 313
29 25 23 23 16 4 351 342 336 329 323 319 321 323 326 328 329 330 330 329 329 327 323 319 318 319 319 318 318 319 319 314 310 307 305 303 302 301 299 299 302 305 304 302 298 294 292 292 291 288 284 280 280 280 280 284 294 303 309 312 312 313 314 316 317 318 318 315 313
20 12 3 343 322 311 304 301 299 297 297 301 310 316 319 320 324 328 328 324 321 320 319 318 318 318 318 317 317 316 313 308 306 303 302 301 300 298 295 294 298 300 301 300 297 295 293 292 291 289 287 284 284 286 291 301 313 319 320 319 317 316 316 317 319 321 322 321 320
247 241 240 244 249 255 263 266 271 276 283 291 299 306 311 314 320 321 319 314 314 316 318 317 316 315 315 314 314 312 308 304 303 301 299 298 297 295 292 291 293 297 299 301 300 299 297 295 293 291 288 285 284 286 293 310 320 321 320 317 314 313 314 315 319 322 324 326 325
234 231 231 232 236 242 249 257 264 272 280 285 291 299 306 312 313 312 310 310 315 318 318 315 313 311 309 307 305 304 302 302 301 299 297 296 296 295 294 294 296 298 300 302 302 302 301 299 294 290 286 283 281 282 286 298 303 304 304 306 307 310 313 315 317 320 322 324 325
232 232 232 232 235 242 251 260 269 277 282 287 293 299 305 308 308 310 312 316 317 317 314 311 309 306 304 301 299 299 300 303 303 302 300 299 299 300 301 303 303 302 302 301 300 298 297 296 293 288 282 274 272 270 267 259 265 274 285 296 306 312 316 316 316 317 318 320 322
232 234 237 238 241 247 256 268 278 283 286 288 293 298 303 305 309 313 316 316 314 312 310 308 307 305 304 303 302 301 302 303 304 304 303 304 304 305 307 309 308 304 301 297 297 296 292 285 285 283 278 267 261 257 252 243 245 254 268 288 306 315 318 316 314 315 317 318 318
235 237 241 245 247 253 263 272 277 279 280 281 287 295 302 306 309 313 313 312 310 309 308 308 308 308 309 310 309 307 305 302 302 302 303 305 307 309 311 312 310 306 303 299 302 304 304 300 293 282 269 260 254 251 251 247 248 253 262 278 302 314 317 316 314 314 314 314 313
239 241 242 242 247 257 265 265 265 269 273 279 289 299 303 304 307 307 306 304 303 304 306 309 311 312 314 314 313 312 310 306 303 301 301 303 306 309 311 312 310 308 305 305 309 311 312 311 307 296 268 235 237 247 262 269 269 268 269 273 288 301 307 309 310 311 311 311 311
237 238 240 243 252 258 258 256 261 267 274 281 293 298 301 303 305 303 299 296 297 300 304 309 311 311 312 313 314 312 310 307 305 303 301 299 301 303 305 306 306 305 306 310 313 315 316 316 314 310 296 221 209 220 263 296 291 285 278 275 275 276 280 285 293 299 305 310 311
229 230 236 251 257 257 257 259 266 270 273 278 285 291 297 302 302 297 294 292 296 302 308 311 309 309 312 315 312 309 306 304 303 302 301 299 298 298 298 300 302 304 309 315 319 321 322 323 323 320 314 246 181 167 196 279 282 278 276 276 274 271 269 271 280 291 299 305 309
222 221 226 243 251 257 260 264 265 266 268 273 281 291 298 300 298 295 294 297 304 309 310 308 308 313 317 315 309 306 305 302 301 301 303 304 302 300 299 299 303 309 315 321 326 329 331 332 332 326 320 317 160 152 173 220 249 259 267 277 283 286 286 285 290 294 298 302 305
218 213 219 234 248 256 260 259 258 261 267 276 288 296 299 299 298 297 297 300 301 299 296 298 308 312 311 307 307 307 305 301 300 301 302 304 303 303 305 309 312 315 320 326 332 337 340 341 340 334 331 350 94 143 177 217 244 262 282 305 309 306 302 301 301 301 301 302 305
217 213 219 233 248 254 257 257 259 266 277 287 293 296 297 297 295 293 291 289 288 288 291 300 309 308 306 305 308 306 304 302 302 302 300 299 302 305 308 312 311 312 318 328 338 345 349 350 348 350 1 44 86 112 117 290 298 307 320 326 319 311 305 301 301 301 300 300 302
219 216 222 235 246 253 257 262 267 276 285 290 290 290 289 287 283 281 279 278 284 293 303 311 312 311 310 311 311 309 306 304 302 300 298 299 305 308 309 309 307 308 316 331 347 354 358 359 2 14 35 68 72 61 18 340 328 326 323 316 305 298 295 294 295 295 296 296 296
227 224 227 236 245 253 261 269 277 284 289 289 286 283 281 281 282 284 286 285 287 295 302 305 307 307 307 309 308 308 306 302 300 300 302 309 312 309 306 304 300 304 317 339 356 2 6 11 23 39 54 68 63 50 24 356 339 326 315 306 295 289 285 285 288 291 293 294 294
232 231 234 239 247 254 264 274 282 288 291 289 285 280 279 282 289 294 295 290 286 286 287 288 290 291 293 294 297 299 300 300 301 303 309 317 318 311 304 298 294 306 322 348 2 8 14 25 40 51 59 62 56 41 19 1 345 332 319 310 304 300 297 296 295 295 295 296 297
231 231 238 244 249 256 264 274 282 288 289 287 287 286 284 281 285 286 286 282 282 286 287 286 284 286 290 291 291 293 296 300 303 306 310 320 322 315 305 297 295 315 332 352 3 11 20 35 47 54 56 54 43 28 13 359 345 332 323 317 314 311 309 308 305 302 300 299 298
227 227 235 246 253 258 263 269 277 282 283 282 285 286 287 285 279 276 274 274 286 293 296 295 299 302 306 307 305 301 294 294 298 303 308 317 318 310 302 299 305 324 338 350 360 10 22 37 45 49 49 45 28 11 2 353 339 328 322 320 316 313 311 310 308 306 304 302 299
224 219 226 242 252 257 259 261 269 274 275 274 276 277 279 281 280 276 272 273 299 303 301 301 304 306 307 308 307 300 291 283 289 296 302 309 304 298 300 307 320 331 339 347 356 4 13 24 31 37 41 35 11 355 348 341 332 325 321 318 312 309 306 304 304 302 301 299 297
219 209 213 229 244 250 254 253 256 259 263 266 265 264 265 271 276 276 274 271 297 301 301 301 301 301 301 305 304 300 295 285 279 288 301 308 296 290 301 322 336 339 343 350 358 1 2 2 2 8 19 49 349 334 332 332 326 321 317 312 307 304 301 299 299 297 295 293 298
215 203 205 219 232 241 246 248 248 250 253 258 262 264 265 264 267 271 272 265 274 285 290 293 294 296 300 309 310 310 310 309 300 308 321 319 306 306 329 352 350 349 351 357 2 2 358 354 349 349 352 6 281 292 313 325 320 315 310 306 303 301 299 296 294 293 291 289 299
209 200 202 215 226 233 239 245 247 247 247 251 260 263 263 258 260 268 276 277 272 275 280 285 291 297 305 315 316 320 325 334 345 356 355 339 340 8 31 28 5 357 356 359 3 1 357 352 346 344 344 334 312 260 296 320 318 313 308 304 301 300 298 296 293 291 290 289 297
205 199 205 217 223 227 233 241 247 250 251 251 253 253 251 251 259 272 287 299 295 291 289 290 296 303 312 323 329 338 346 350 360 7 9 3 13 26 33 30 13 2 357 357 359 357 353 349 344 342 340 339 343 341 315 324 321 315 308 303 299 297 297 298 297 296 294 293 295